BMCB-27 Weather Reports


time (UTC)temp
C
wind
direction
speed
KPH
gust
KPH
rain 1hr
cm
rain 24hr
cm
rain mn
cm
humidity
%
barometer
mb
20260503072100 14 0 0.0 0.0 0.00 0.89 0.00 72 1010.3
20260503071106 14 0 0.0 0.0 0.00 0.89 0.00 73 1010.3
20260503054605 13 0 0.0 0.0 0.00 0.89 0.00 84 1010.1
20260503053600 13 0 0.0 0.0 0.00 0.89 0.00 85 1010.3
20260503052924 13 0 0.0 0.0 0.00 0.89 0.00 86 1010.4
20260503051108 13 0 0.0 0.0 0.00 0.89 0.00 87 1010.5
20260503050608 13 0 0.0 0.0 0.00 0.89 0.00 87 1010.4
20260503045957 13 0 0.0 0.0 0.00 0.89 0.00 88 1010.3
20260503044251 13 0 0.0 0.0 0.00 0.89 0.00 87 1010.4
20260503043210 13 0 0.0 0.0 0.00 0.89 0.00 85 1010.6
20260503042449 13 0 0.0 0.0 0.00 0.89 0.00 84 1010.5
20260503040352 13 0 0.0 0.0 0.00 0.89 0.00 83 1010.5
20260503034259 13 0 0.0 0.0 0.00 0.89 0.00 84 1010.7
20260503033648 13 0 0.0 0.0 0.00 0.89 0.00 84 1010.8
20260503024913 13 0 0.0 0.0 0.00 0.89 0.00 85 1010.9
20260503022946 14 0 0.0 0.0 0.00 0.89 0.00 84 1011.0
20260503021721 14 0 0.0 0.0 0.00 0.89 0.00 84 1011.0
20260503021205 14 0 0.0 0.0 0.00 0.89 0.00 84 1011.1
20260503015939 14 0 0.0 0.0 0.00 0.89 0.00 84 1011.1
20260503013104 15 0 0.0 0.0 0.00 0.89 0.00 81 1011.1
20260503012538 15 0 0.0 0.0 0.00 0.89 0.00 80 1011.3
20260503010856 16 0 0.0 0.0 0.00 0.89 0.00 78 1011.4
20260503010054 16 0 0.0 0.0 0.00 0.89 0.00 77 1011.5
20260503005048 16 0 0.0 0.0 0.00 0.89 0.00 78 1011.5
20260503004354 16 0 0.0 0.0 0.00 0.89 0.00 78 1011.6
20260503003634 16 0 0.0 0.0 0.00 0.89 0.00 79 1011.7
20260503002738 16 0 0.0 0.0 0.00 0.89 0.00 78 1011.7
20260503002212 16 0 0.0 0.0 0.00 0.89 0.00 78 1011.7
20260502235110 16 0 0.0 0.0 0.00 0.89 0.00 78 1011.8
20260502233635 16 0 0.0 0.0 0.00 0.89 0.00 77 1011.9
20260502232805 16 0 0.0 0.0 0.00 0.89 0.00 76 1012.0
20260502230904 16 0 0.0 0.0 0.00 0.89 0.00 75 1011.8
20260502225702 16 0 0.0 0.0 0.00 0.89 0.00 76 1011.9
20260502224141 16 0 0.0 0.0 0.00 0.89 0.00 76 1012.1
20260502223508 16 0 0.0 0.0 0.00 0.89 0.00 77 1012.0
20260502222206 16 0 0.0 0.0 0.00 0.89 0.00 78 1012.0
20260502221640 16 0 0.0 0.0 0.00 0.89 0.00 77 1011.9
20260502220811 17 0 0.0 0.0 0.00 0.89 0.00 76 1011.9
20260502220003 17 0 0.0 0.0 0.00 0.89 0.89 75 1011.9
20260502215128 17 0 0.0 0.0 0.00 0.89 0.89 76 1011.9
20260502213412 17 0 0.0 0.0 0.00 0.89 0.89 75 1012.0
20260502212016 17 0 0.0 0.0 0.00 0.89 0.89 75 1012.1
20260502192016 17 0 0.0 0.0 0.00 0.89 0.89 74 1012.4
20260502191016 18 0 0.0 0.0 0.00 0.89 0.89 73 1012.4
20260502190014 18 0 0.0 0.0 0.00 0.89 0.89 72 1012.4
20260502185015 18 0 0.0 0.0 0.00 0.89 0.89 69 1012.4
20260502184016 19 0 0.0 0.0 0.00 0.89 0.89 65 1012.2
20260502183016 20 0 0.0 0.0 0.00 0.89 0.89 63 1012.2
20260502182015 20 0 0.0 0.0 0.00 0.89 0.89 61 1012.2
20260502181015 20 0 0.0 0.0 0.00 0.89 0.89 60 1012.1
20260502164015 22 0 0.0 0.0 0.00 0.89 0.89 55 1012.4
20260502163015 22 0 0.0 0.0 0.00 0.89 0.89 54 1012.7
20260502162015 22 0 0.0 0.0 0.00 0.89 0.89 53 1012.8
20260502161015 22 0 0.0 0.0 0.00 0.89 0.89 52 1012.8
20260502152015 22 0 0.0 0.0 0.00 0.89 0.89 55 1013.3
20260502150809 22 0 0.0 0.0 0.00 0.89 0.89 55 1013.4
20260502123810 21 0 0.0 0.0 0.00 0.89 0.89 58 1015.9
20260502122810 21 0 0.0 0.0 0.00 0.89 0.89 57 1016.1
20260502121811 20 0 0.0 0.0 0.00 0.89 0.89 62 1016.3
20260502120810 20 0 0.0 0.0 0.00 0.89 0.89 64 1016.5
20260502114811 19 0 0.0 0.0 0.00 0.89 0.89 67 1016.8
20260502113648 19 0 0.0 0.0 0.00 0.89 0.89 69 1016.9
20260502112446 20 0 0.0 0.0 0.00 0.89 0.89 67 1017.0
20260502111001 20 0 0.0 0.0 0.00 0.89 0.89 63 1017.0
20260502105146 20 0 0.0 0.0 0.00 0.89 0.89 60 1017.0
20260502103330 20 0 0.0 0.0 0.00 0.89 0.89 60 1017.0
20260502101955 20 0 0.0 0.0 0.00 0.89 0.89 62 1017.1
20260502100754 20 0 0.0 0.0 0.00 0.89 0.89 63 1017.3
20260502090153 19 0 0.0 0.0 0.89 0.89 0.89 67 1017.7